Zurück zum Katalog

STARLINK-33813

AktivKommunikationVLEO
NORAD 63585·PAYLOAD·🇺🇸 United States

Gestartet Apr 14, 2025 von Cape Canaveral Space Force Station

Loading…

Nächste Überflüge (nächste 24 Stunden)

TLE

AktuellSource: CelesTrak SupGP

Epoche: Sep 14, 2026, 15:29 UTC

1 63585C 25076S   26257.64562500  .00042857  00000+0  15530-2 0  2575
2 63585  43.0023 334.1449 0001412 272.3971  89.8735 15.27542913    18

Verfolge STARLINK-33813 in Echtzeit mit AllMySat

Download on the App Store